KLM35G EHAM-LROP

Flight info

Callsign KLM35G
Flight time N/A
Altitude 35000
Route EDUPO Z739 MISGO DCT TIVUN DCT ESAMA DCT OSBIT DCT BARSU DCT DEXIT DCT PESAT DCT MOPUG DCT LAMIT DCT TOSVI
Aircraft A321/M-SDE3FGHIRWY/LB1

Departure

Time 2026-04-27 09:58
Airport Amsterdam Airport Schiphol (EHAM)

Arrival

Time N/A
Airport Bucharest Henri Coandă International Airport (LROP)
Time Latitude Longitude Altitude Speed Heading
2026-04-27 09:28 52.30791 4.77293 -1 ft 0 kts 183°
2026-04-27 09:40 52.30795 4.77293 -1 ft 4 kts 181°
2026-04-27 09:40 52.30822 4.77289 -1 ft 4 kts 155°
2026-04-27 09:41 52.30839 4.77264 -1 ft 4 kts 104°
2026-04-27 09:41 52.30841 4.77250 -1 ft 1 kts 92°
2026-04-27 09:43 52.30841 4.77266 -1 ft 4 kts 92°
2026-04-27 09:43 52.30839 4.77340 -1 ft 8 kts 92°
2026-04-27 09:44 52.30836 4.77435 -1 ft 9 kts 92°
2026-04-27 09:44 52.30833 4.77537 -1 ft 10 kts 89°
2026-04-27 09:44 52.30890 4.77610 -1 ft 14 kts
2026-04-27 09:44 52.30993 4.77619 -1 ft 15 kts
2026-04-27 09:45 52.31103 4.77628 -1 ft 17 kts
2026-04-27 09:45 52.31222 4.77638 -1 ft 17 kts
2026-04-27 09:45 52.31341 4.77650 -1 ft 16 kts
2026-04-27 09:45 52.31450 4.77635 -1 ft 16 kts 337°
2026-04-27 09:46 52.31532 4.77525 -1 ft 15 kts 313°
2026-04-27 09:46 52.31576 4.77361 -1 ft 19 kts 273°
2026-04-27 09:46 52.31569 4.77126 -1 ft 21 kts 266°
2026-04-27 09:46 52.31561 4.76888 -1 ft 21 kts 267°
2026-04-27 09:47 52.31552 4.76651 -1 ft 21 kts 266°
2026-04-27 09:47 52.31545 4.76415 -1 ft 21 kts 267°
2026-04-27 09:47 52.31537 4.76183 -1 ft 20 kts 267°
2026-04-27 09:47 52.31529 4.75951 -1 ft 20 kts 266°
2026-04-27 09:48 52.31521 4.75721 -1 ft 20 kts 267°
2026-04-27 09:48 52.31514 4.75490 -1 ft 20 kts 266°
2026-04-27 09:48 52.31505 4.75261 -1 ft 20 kts 267°
2026-04-27 09:48 52.31498 4.75033 -1 ft 20 kts 267°
2026-04-27 09:49 52.31490 4.74809 -1 ft 20 kts 266°
2026-04-27 09:49 52.31483 4.74585 -1 ft 19 kts 267°
2026-04-27 09:49 52.31476 4.74388 -1 ft 14 kts 266°
2026-04-27 09:49 52.31537 4.74296 -1 ft 14 kts 358°
2026-04-27 09:50 52.31643 4.74307 -1 ft 17 kts
2026-04-27 09:50 52.31772 4.74322 -1 ft 20 kts
2026-04-27 09:50 52.31921 4.74334 -1 ft 20 kts
2026-04-27 09:50 52.32026 4.74270 -1 ft 16 kts 287°
2026-04-27 09:51 52.32036 4.74072 -2 ft 19 kts 273°
2026-04-27 09:51 52.32044 4.73840 -1 ft 21 kts 272°
2026-04-27 09:51 52.32053 4.73588 -1 ft 23 kts 273°
2026-04-27 09:51 52.32096 4.73346 -1 ft 22 kts 314°
2026-04-27 09:52 52.32207 4.73189 -1 ft 21 kts 319°
2026-04-27 09:52 52.32316 4.73037 -1 ft 20 kts 319°
2026-04-27 09:52 52.32421 4.72890 -1 ft 19 kts 319°
2026-04-27 09:52 52.32521 4.72749 -1 ft 19 kts 319°
2026-04-27 09:53 52.32618 4.72613 -1 ft 18 kts 319°
2026-04-27 09:53 52.32709 4.72465 -1 ft 21 kts 311°
2026-04-27 09:53 52.32811 4.72277 -1 ft 23 kts 311°
2026-04-27 09:53 52.32922 4.72073 -1 ft 25 kts 311°
2026-04-27 09:54 52.33033 4.71866 -1 ft 20 kts 311°
2026-04-27 09:54 52.33123 4.71699 -1 ft 19 kts 308°
2026-04-27 09:54 52.33132 4.71507 -1 ft 17 kts 237°
2026-04-27 09:54 52.33047 4.71376 -1 ft 16 kts 220°
2026-04-27 09:55 52.32964 4.71259 -1 ft 15 kts 221°
2026-04-27 09:55 52.32888 4.71147 -1 ft 14 kts 226°
2026-04-27 09:55 52.32907 4.70897 -2 ft 11 kts 351°
2026-04-27 09:56 52.32936 4.70899 -3 ft 0 kts
2026-04-27 09:57 52.33093 4.70914 -4 ft 56 kts
2026-04-27 09:57 52.33708 4.70970 1 ft 118 kts
2026-04-27 09:57 52.34691 4.71059 4 ft 163 kts
2026-04-27 09:57 52.35838 4.71166 586 ft 159 kts
2026-04-27 09:58 52.36924 4.71275 1315 ft 153 kts
2026-04-27 09:58 52.37989 4.71383 1851 ft 159 kts
2026-04-27 09:58 52.39165 4.71507 2103 ft 179 kts
2026-04-27 09:58 52.40480 4.71640 2266 ft 200 kts
2026-04-27 09:59 52.41947 4.71784 2401 ft 223 kts
2026-04-27 09:59 52.43570 4.71941 2668 ft 245 kts
2026-04-27 09:59 52.45312 4.72104 3360 ft 253 kts
2026-04-27 09:59 52.47085 4.72265 4199 ft 256 kts
2026-04-27 10:00 52.48877 4.72429 5032 ft 259 kts
2026-04-27 10:00 52.50690 4.72600 5826 ft 263 kts
2026-04-27 10:00 52.52426 4.73446 6559 ft 269 kts 31°
2026-04-27 10:00 52.53755 4.75616 7252 ft 276 kts 60°
2026-04-27 10:01 52.54285 4.78658 7945 ft 282 kts 88°
2026-04-27 10:01 52.54067 4.81887 8664 ft 287 kts 104°
2026-04-27 10:01 52.53310 4.84933 9395 ft 291 kts 121°
2026-04-27 10:01 52.52051 4.87559 10088 ft 295 kts 137°
2026-04-27 10:02 52.50406 4.89619 10608 ft 306 kts 146°
2026-04-27 10:02 52.48596 4.91705 10757 ft 329 kts 146°
2026-04-27 10:02 52.46659 4.93938 10895 ft 350 kts 146°
2026-04-27 10:02 52.44642 4.96276 11393 ft 359 kts 146°
2026-04-27 10:03 52.42597 4.98648 12007 ft 363 kts 146°
2026-04-27 10:03 52.40525 5.01053 12666 ft 366 kts 146°
2026-04-27 10:03 52.38406 5.03508 13340 ft 370 kts 147°
2026-04-27 10:03 52.36293 5.05948 13992 ft 374 kts 147°
2026-04-27 10:04 52.34172 5.08434 14566 ft 378 kts 144°
2026-04-27 10:04 52.32238 5.11405 15100 ft 385 kts 134°
2026-04-27 10:04 52.30440 5.14694 15645 ft 389 kts 134°
2026-04-27 10:04 52.28623 5.18007 16174 ft 394 kts 134°
2026-04-27 10:05 52.26787 5.21350 16713 ft 398 kts 134°